Mandan, ND

4:57 AM CDT on June 24, 2017 (GMT -0500)
Mandan

Weather History for KY19 - February, 2013

Change the Weather History Date:

Tuesday, February 26, 2013

  Actual Average (KBIS) Record (KBIS)
Temperature  
Mean Temperature 30 °F -  
Max Temperature 41 °F 34 °F 62 °F (2016)
Min Temperature 19 °F 15 °F -34 °F (1890)
Degree Days  
Heating Degree Days 35    
Moisture  
Dew Point 25 °F    
Average Humidity 82    
Maximum Humidity 100    
Minimum Humidity 57    
Precipitation  
Precipitation 0.00 in - - ()
Sea Level Pressure  
Sea Level Pressure 29.95 in    
Wind  
Wind Speed 9 mph (SSW)    
Max Wind Speed 18 mph    
Max Gust Speed 23 mph    
Visibility 10 miles    
Events      
Averages and records for this station are not official NWS values.
T = Trace of Precipitation, MM = Missing Value Source: NWS Daily Summary

Daily Weather History Graph

Daily Weather History Graph

Search for Another Location

Airport or City:

Trip Planner

Search our weather history database for the weather conditions in past years. The results will help you decide how hot, cold, wet, or windy it might be!

Date:

Astronomy

Feb. 26, 2013 Rise Set
Actual Time 7:28 AM CST 6:25 PM CST
Civil Twilight 6:57 AM CST 6:55 PM CST
Nautical Twilight 6:22 AM CST 7:31 PM CST
Astronomical Twilight 5:47 AM CST 8:06 PM CST
Moon 7:52 PM CST (2/26) 7:25 AM CST (2/26)
Length of Visible Light 11h 58m
Length of Day
10h 57m
Full, 99% of the Moon is Illuminated
Feb 26
Full
Mar 4
Last Quarter
Mar 11
New
Mar 19
First Quarter
Mar 27
Full

Hourly Weather History & Observations

Time (CST) Temp. Windchill Dew Point Humidity Pressure Visibility Wind Dir Wind Speed Gust Speed Precip Events Conditions
12:15 AM 28.4 °F 17.5 °F 24.8 °F 86% 29.87 in 10.0 mi South 13.8 mph - N/A   Clear
12:35 AM 28.4 °F 18.5 °F 24.8 °F 86% 29.87 in 10.0 mi South 11.5 mph - N/A   Clear
12:55 AM 26.6 °F 16.2 °F 24.8 °F 93% 29.87 in 10.0 mi South 11.5 mph - N/A   Clear
1:15 AM 26.6 °F 16.8 °F 24.8 °F 93% 29.87 in 10.0 mi South 10.4 mph - N/A   Clear
1:35 AM 26.6 °F 16.2 °F 24.8 °F 93% 29.87 in 10.0 mi South 11.5 mph - N/A   Clear
1:55 AM 26.6 °F 15.2 °F 24.8 °F 93% 29.87 in 10.0 mi South 13.8 mph - N/A   Clear
2:15 AM 26.6 °F 15.2 °F 23.0 °F 86% 29.87 in 10.0 mi South 13.8 mph - N/A   Clear
2:35 AM 26.6 °F 16.2 °F 23.0 °F 86% 29.87 in 10.0 mi South 11.5 mph - N/A   Clear
2:55 AM 26.6 °F 17.5 °F 23.0 °F 86% 29.87 in 10.0 mi South 9.2 mph - N/A   Clear
3:15 AM 24.8 °F 16.9 °F 23.0 °F 93% 29.87 in 10.0 mi South 6.9 mph - N/A   Clear
3:35 AM 24.8 °F 16.1 °F 21.2 °F 86% 29.87 in 10.0 mi South 8.1 mph - N/A   Clear
3:55 AM 23.0 °F 13.1 °F 21.2 °F 93% 29.86 in 10.0 mi South 9.2 mph - N/A   Clear
4:15 AM 23.0 °F 13.1 °F 19.4 °F 86% 29.86 in 10.0 mi South 9.2 mph - N/A   Clear
4:35 AM 23.0 °F 14.7 °F 19.4 °F 86% 29.87 in 10.0 mi SSE 6.9 mph - N/A   Clear
4:55 AM 23.0 °F 11.1 °F 19.4 °F 86% 29.88 in 10.0 mi SSE 12.7 mph - N/A   Clear
5:15 AM 23.0 °F 13.9 °F 19.4 °F 86% 29.88 in 10.0 mi SSE 8.1 mph - N/A   Clear
5:35 AM 23.0 °F 12.4 °F 17.6 °F 80% 29.88 in 10.0 mi South 10.4 mph - N/A   Clear
5:55 AM 23.0 °F 12.4 °F 19.4 °F 86% 29.88 in 10.0 mi South 10.4 mph - N/A   Clear
6:15 AM 23.0 °F 13.9 °F 19.4 °F 86% 29.89 in 10.0 mi South 8.1 mph - N/A   Clear
6:35 AM 21.2 °F 12.6 °F 19.4 °F 93% 29.90 in 10.0 mi SSE 6.9 mph - N/A   Clear
6:55 AM 21.2 °F 12.6 °F 19.4 °F 93% 29.89 in 10.0 mi South 6.9 mph - N/A   Clear
7:15 AM 21.2 °F 14.9 °F 19.4 °F 93% 29.90 in 10.0 mi South 4.6 mph - N/A   Clear
7:35 AM 19.4 °F - 17.6 °F 93% 29.90 in 10.0 mi Calm Calm - N/A   Clear
7:55 AM 23.0 °F 17.0 °F 19.4 °F 86% 29.90 in 10.0 mi SSW 4.6 mph - N/A   Clear
8:15 AM 21.2 °F 13.6 °F 19.4 °F 93% 29.90 in 10.0 mi South 5.8 mph - N/A   Clear
8:35 AM 24.8 °F 19.1 °F 19.4 °F 80% 29.90 in 10.0 mi South 4.6 mph - N/A   Clear
8:55 AM 24.8 °F 17.9 °F 19.4 °F 80% 29.91 in 10.0 mi South 5.8 mph - N/A   Clear
9:15 AM 26.6 °F 20.0 °F 21.2 °F 80% 29.91 in 10.0 mi South 5.8 mph - N/A   Clear
9:35 AM 28.4 °F 21.2 °F 21.2 °F 74% 29.92 in 10.0 mi SSW 6.9 mph - N/A   Clear
9:55 AM 28.4 °F 21.2 °F 21.2 °F 74% 29.92 in 10.0 mi SW 6.9 mph - N/A   Clear
10:15 AM 30.2 °F 25.4 °F 21.2 °F 69% 29.91 in 10.0 mi SW 4.6 mph - N/A   Clear
10:35 AM 32.0 °F 27.5 °F 21.2 °F 64% 29.91 in 10.0 mi South 4.6 mph - N/A   Clear
10:55 AM 32.0 °F 28.7 °F 23.0 °F 69% 29.92 in 10.0 mi South 3.5 mph - N/A   Clear
11:15 AM 32.0 °F 27.5 °F 23.0 °F 69% 29.93 in 10.0 mi SSE 4.6 mph - N/A   Clear
11:35 AM 33.8 °F 27.7 °F 23.0 °F 65% 29.93 in 10.0 mi South 6.9 mph - N/A   Clear
12:15 PM 35.6 °F 29.9 °F 24.8 °F 65% 29.94 in 10.0 mi South 6.9 mph - N/A   Clear
12:35 PM 35.6 °F 30.7 °F 24.8 °F 65% 29.94 in 10.0 mi South 5.8 mph - N/A   Clear
12:55 PM 35.6 °F 30.7 °F 24.8 °F 65% 29.94 in 10.0 mi South 5.8 mph - N/A   Clear
1:15 PM 37.4 °F 32.1 °F 26.6 °F 65% 29.94 in 10.0 mi South 6.9 mph - N/A   Clear
1:35 PM 37.4 °F 32.8 °F 26.6 °F 65% 29.94 in 10.0 mi South 5.8 mph - N/A   Partly Cloudy
1:55 PM 37.4 °F 32.1 °F 28.4 °F 70% 29.94 in 10.0 mi South 6.9 mph - N/A   Mostly Cloudy
2:15 PM 37.4 °F 33.8 °F 28.4 °F 70% 29.94 in 10.0 mi South 4.6 mph - N/A   Overcast
2:35 PM 39.2 °F 37.0 °F 26.6 °F 61% 29.94 in 10.0 mi South 3.5 mph - N/A   Overcast
2:55 PM 39.2 °F 37.0 °F 26.6 °F 61% 29.94 in 10.0 mi South 3.5 mph - N/A   Overcast
3:15 PM 39.2 °F - 26.6 °F 61% 29.94 in 10.0 mi Calm Calm - N/A   Overcast
3:35 PM 39.2 °F 37.0 °F 26.6 °F 61% 29.94 in 10.0 mi South 3.5 mph - N/A   Overcast
3:55 PM 41.0 °F 39.0 °F 28.4 °F 61% 29.95 in 10.0 mi South 3.5 mph - N/A   Overcast
4:15 PM 39.2 °F - 26.6 °F 61% 29.96 in 10.0 mi Calm Calm - N/A   Mostly Cloudy
4:35 PM 39.2 °F - 26.6 °F 61% 29.96 in 10.0 mi Calm Calm - N/A   Partly Cloudy
4:55 PM 41.0 °F - 26.6 °F 57% 29.97 in 10.0 mi Calm Calm - N/A   Clear
5:15 PM 41.0 °F 39.0 °F 28.4 °F 61% 29.97 in 10.0 mi NW 3.5 mph - N/A   Clear
5:35 PM 39.2 °F 35.0 °F 28.4 °F 65% 29.98 in 10.0 mi NW 5.8 mph - N/A   Clear
5:55 PM 37.4 °F 33.8 °F 32.0 °F 81% 29.98 in 10.0 mi NW 4.6 mph - N/A   Clear
6:15 PM 35.6 °F 29.2 °F 28.4 °F 75% 29.99 in 10.0 mi NW 8.1 mph - N/A   Clear
6:35 PM 33.8 °F 26.4 °F 30.2 °F 87% 30.00 in 10.0 mi NW 9.2 mph - N/A   Clear
6:55 PM 32.0 °F 24.2 °F 30.2 °F 93% 30.01 in 10.0 mi NNW 9.2 mph - N/A   Partly Cloudy
7:15 PM 32.0 °F 22.5 °F 30.2 °F 93% 30.01 in 10.0 mi NNW 12.7 mph - N/A   Partly Cloudy
7:35 PM 32.0 °F 21.6 °F 30.2 °F 93% 30.02 in 10.0 mi NNW 15.0 mph - N/A   Scattered Clouds
7:55 PM 32.0 °F 20.8 °F 30.2 °F 93% 30.04 in 10.0 mi NNW 17.3 mph 21.9 mph N/A   Partly Cloudy
8:15 PM 32.0 °F 21.6 °F 32.0 °F 100% 30.04 in 10.0 mi NW 15.0 mph - N/A   Mostly Cloudy
8:35 PM 32.0 °F 20.5 °F 32.0 °F 100% 30.06 in 10.0 mi NNW 18.4 mph 23.0 mph N/A   Overcast
8:55 PM 32.0 °F 22.1 °F 32.0 °F 100% 30.07 in 10.0 mi NNW 13.8 mph - N/A   Overcast
9:15 PM 32.0 °F 21.6 °F 32.0 °F 100% 30.07 in 10.0 mi NNW 15.0 mph - N/A   Overcast
9:35 PM 32.0 °F 23.6 °F 32.0 °F 100% 30.08 in 10.0 mi NNW 10.4 mph 19.6 mph N/A   Overcast
9:55 PM 32.0 °F 24.8 °F 32.0 °F 100% 30.09 in 10.0 mi NNW 8.1 mph - N/A   Overcast
10:15 PM 32.0 °F 23.6 °F 32.0 °F 100% 30.08 in 10.0 mi North 10.4 mph - N/A   Overcast
10:35 PM 32.0 °F 23.0 °F 32.0 °F 100% 30.08 in 10.0 mi NNW 11.5 mph - N/A   Overcast
10:55 PM 32.0 °F 23.0 °F 32.0 °F 100% 30.08 in 10.0 mi NNW 11.5 mph - N/A   Overcast
11:15 PM 32.0 °F 23.0 °F 32.0 °F 100% 30.08 in 10.0 mi NNW 11.5 mph - N/A   Overcast
11:35 PM 32.0 °F 22.5 °F 32.0 °F 100% 30.09 in 10.0 mi NNW 12.7 mph - N/A   Overcast
11:55 PM 32.0 °F 20.8 °F 32.0 °F 100% 30.09 in 10.0 mi North 17.3 mph - N/A   Overcast